Regional Weather Roundup
Issued by NWS

Home | Current Version | Previous Version | Text Only | Print | Product List | Glossary On
Versions: 1 2 3 4 5 6 7 8 9 10 11 12 13 14 15 16 17 18 19 20 21 22 23 24 25 26 27 28 29 30 31 32 33 34 35 36 37 38 39 40 41 42 43 44 45 46 47 48 49 50
000
ASUS43 KMKX 290203
RWRWI

WISCONSIN REGIONAL WEATHER ROUNDUP
NATIONAL WEATHER SERVICE MILWAUKEE/SULLIVAN WI
900 PM CDT THU MAY 28 2015

NOTE: "FAIR" INDICATES FEW OR NO CLOUDS BELOW 12,000 FEET WITH NO
SIGNIFICANT WEATHER AND/OR OBSTRUCTIONS TO VISIBILITY.

WIZ001-002-006>008-014>016-023>028-290300-
NORTHWEST WISCONSIN

CITY           SKY/WX    TMP DP  RH WIND       PRES   REMARKS
SUPERIOR ARPT  CLOUDY    40  40  99 NE7       29.97R FOG
ASHLAND        PTCLDY    48  46  93 N5        29.95S
HAYWARD        PTCLDY    73  53  49 S12       29.95R
SIREN          PTCLDY    74  52  45 S8        29.93R
CUMBERLAND     MOCLDY    68  54  60 SE7       29.96R
RICE LAKE      MOCLDY    72  54  53 SE5       29.96F
CHETEK         MOCLDY    72  57  60 SE7       29.95F
LADYSMITH      PTCLDY    71  55  55 S3        29.99F
EAU CLAIRE     PTCLDY    74  53  48 S12       29.95F
MENOMONIE      PTCLDY    72  53  51 SE8       29.96R
NEW RICHMOND   MOCLDY    74  52  47 S9G17     29.94S
OSCEOLA        MOCLDY    74  54  49 SE8       29.94S
$$

WIZ003>005-009-010-017-018-290300-
NORTH CENTRAL WISCONSIN

CITY           SKY/WX    TMP DP  RH WIND       PRES   REMARKS
MANITOWISH WTR PTCLDY    72  54  52 S9        29.99S
ARBOR VITAE    PTCLDY    72  56  57 S8        30.01S
WOODRUFF       PTCLDY    72  56  57 S8        30.01S
RHINELANDER    MOCLDY    72  54  53 S6        30.03S
EAGLE RIVER    PTCLDY    73  49  43 S5        30.02R
LAND O LAKES   PTCLDY    73  52  47 S5        30.02S
PHILLIPS       PTCLDY    72  54  52 S10       29.99S
TOMAHAWK       PTCLDY    68  55  63 CALM      30.02F
MEDFORD        CLEAR     66  57  72 S7        30.01F
MERRILL        PTCLDY    72  57  59 S3        30.03S
$$

WIZ029-030-035-036-043>047-290300-
CENTRAL WISCONSIN

CITY           SKY/WX    TMP DP  RH WIND       PRES   REMARKS
WAUSAU         CLEAR     71  55  56 S7        30.01S
MOSINEE        CLEAR     66  57  72 S7        30.04S
MARSHFIELD     CLEAR     67  55  65 S8        30.01F
STEVENS POINT  CLEAR     72  53  50 S10       30.03F
WAUPACA        CLEAR     73  56  55 SE5       30.03F
WAUTOMA        NOT AVBL
WISC RAPIDS    CLEAR     71  53  52 S6        30.03F
CAMP DOUGLAS   NOT AVBL
$$

WIZ011>013-019>022-031-037>040-048>050-290300-
NORTHEAST WISCONSIN

CITY           SKY/WX    TMP DP  RH WIND       PRES   REMARKS
ANTIGO         PTCLDY    66  58  74 S9        30.05S
SHAWANO        CLEAR     75  55  49 S3        30.05S
OCONTO         PTCLDY    69  59  71 S7        30.05S
STURGEON BAY   PTCLDY    66  52  59 S12G20    30.10S
GREEN BAY      CLEAR     70  57  63 S9        30.06S
MANITOWOC      NOT AVBL
APPLETON       PTCLDY    70  57  64 SE8       30.06F
CLINTONVILLE   CLEAR     72  54  53 S6        30.04F
OSHKOSH        CLEAR     72  58  61 SE8       30.05F
$$

WIZ032>034-041-042-053>061-290300-
SOUTHWEST WISCONSIN

CITY           SKY/WX    TMP DP  RH WIND       PRES   REMARKS
LA CROSSE      PTCLDY    75  54  47 SE9       29.96F
SPARTA         PTCLDY    71  53  53 SE3       30.01F
VIROQUA        PTCLDY    70  53  53 SE6       30.02F
BOSCOBEL       CLEAR     68  58  70 CALM      30.00F
PRAIRIE DU CHI PTCLDY    74  51  43 CALM      29.99F
PLATTEVILLE    MOCLDY    71  56  59 SE7       30.03S
$$

WIZ056-057-062-063-064-067-068-290300-
SOUTH CENTRAL WISCONSIN

CITY           SKY/WX    TMP DP  RH WIND       PRES   REMARKS
REEDSBURG      CLEAR     72  55  55 SE3       30.02F
BARABOO/DELLS  CLEAR     70  53  56 SE5       30.03F
LONE ROCK      NOT AVBL
MINERAL POINT  CLEAR     72  52  49 SE3       30.04F
MADISON        PTCLDY    74  54  49 SE10      30.03F
MIDDLETON      CLEAR     74  51  44 SE5       30.04F
WATERTOWN      CLEAR    N/A N/A N/A SE5       30.06F
MONROE         PTCLDY    72  54  53 SE9       30.05F
JANESVILLE     CLEAR     72  55  56 E8        30.05F
$$

WIZ051-052-058>065-066-070>072-290300-
SOUTHEAST WISCONSIN

CITY           SKY/WX    TMP DP  RH WIND       PRES   REMARKS
MILWAUKEE      PTCLDY    65  53  65 SE8       30.09F
WAUKESHA       CLEAR     70  54  56 SE6       30.10F
MILWAUKEE/TIMM CLEAR     72  52  49 SE5       30.09F
RACINE         CLEAR     65  53  65 SE6       30.11F
BURLINGTON     CLEAR     67  55  64 E7        30.09F
KENOSHA        CLEAR     66  54  65 E8        30.09F
FOND DU LAC    CLEAR     69  57  65 SE10      30.05F
SHEBOYGAN      CLEAR     65  55  70 S5        30.08F
WEST BEND      CLEAR     70  50  49 SE7       30.08F
JUNEAU         CLEAR     71  55  57 SE9       30.07F
$$

LSZ147-162-290300-
LAKE SUPERIOR

STATION/POSITION TIME  TEMP    WIND        PRES    WAVE
                       AIR SEA DIR/SP/G            HT/PER
                 (UTC) (F)     (DEG/KT/KT) (MB)    (FT/S)
W MID LAKE BUOY  0050   38 37   30/ 10/ 12   N/A     3/ 5
DEVILS ISLAND    0100   39      60/ 11/ 12   N/A
PORT WING        0100   40      20/ 13/ 14   N/A
SAXON HARBOR     0100   46        CALM       N/A
$$

LMZ867-665-643>646-290300-
LAKE MICHIGAN

STATION/POSITION TIME  TEMP    WIND        PRES    WAVE
                       AIR SEA DIR/SP/G            HT/PER
                 (UTC) (F)     (DEG/KT/KT) (MB)    (FT/S)
CHAMBERS ISLAND  0100   68     130/  4/  9   N/A
N MID LAKE BUOY  0050   42 37  190/ 12/ 12   N/A     1
NORTHPORT PIER   0100   60     160/  7/ 11   N/A
SISTER BAY       0118   65     180/ 12/ 16   N/A
ALGOMA LAKESHORE 0038          210/ 11/ 13   N/A
KEWAUNEE LAKESHO 0100   53     180/ 12/ 14   N/A
SHEBOYGAN LAKESH 0100   61     180/ 18/ 19   N/A
PORT WASHINGTON  0140   59     200/  4/  5   N/A
ATWATER BUOY     0100   55     170/  6/  6   N/A
MILWAUKEE LAKESH 0100   60     150/  5/  7   N/A
S MID LAKE BUOY  2350   60 39   60/  6/  6   N/A
KENOSHA   LAKESH 0100   61        CALM       N/A
$$

TC  - TEMPERATURE IN CELSIUS
VSB - VISIBILITY IN STATUTE MILES
WCI - WIND CHILL INDEX
HX  - HEAT INDEX



USA.gov is the U.S. government's official web portal to all federal, state and local government web resources and services.